DELTA 1 DEB, 7161

Orbit data source: Space-Track

DELTA 1 DEB, 7161 is space debris in SSO originally from a launch on Tue, 06 Nov 1973 UTC launched from the Air Force Western Test Range (AFWTR). Debris objects in space refer to the collection of defunct objects orbiting the Earth. Examples of debris include non-operational satellites, rocket bodies, and fragments generated from explosions, collisions, or faulty payload assembly.

Loading next visibility...
Identifier
7161, 1973-086DZ
Orbit
SSO
Country
Flag of USUS
Related business
Manufacturer
Unknown
Mission
Spacecraft
Bus & Motor
Unknown
Mass
Unknown
Launch date (UTC)
1973-11-06 (52 years ago)
Launch vehicle
Unknown
Launch site
Air Force Western Test Range (AFWTR)
Object type
Payload
Rocket body
Debris
Shape & HBR
Unknown shape, 0.2 m
Radar Cross Section
Small (<0.1 m²)

Expand to show TLE details & history
Last TLE update: 7 hours ago

TLE from 7 hours ago
0 DELTA 1 DEB
1 07161U 73086DZ  26034.58241154 -.00000023  00000-0  16637-3 0  9996
2 07161 102.2241  62.9656 0014438   9.7403 144.7807 12.41249791366215
Epoch: 2026-02-03T13:58Z
TLE epoch observation values (Epoch: 2026-02-03T13:58:40.357Z)
Latitude
24.79668°
Longitude
-94.7476°
Altitude
1,513.282 km
Speed
7.106 km/s
True Right ascension
16h 34m 43s
True Declination
24° 40' 43"
Sunlit
Object was in daylight at epoch
Visualization orbit readout
Latitude
Unknown
Longitude
Unknown
Altitude
Unknown
Speed
Unknown
Apparent Right ascension
Unknown
Apparent Declination
Unknown
Sunlit
N/A
Visualization observer readout
Local Sidereal Time
22:51:10
Azimuth
Unknown
Elevation
Unknown
Doppler factor
Unknown
Orbital elements
Apogee altitude
1,510.269 km
Perigee altitude
1,487.523 km
Semi-major axis
7,877.033 km
Eccentricity
0.00144
Inclination
102.2241°
RAAN
62.9656°
Arg. of periapsis
9.7403°
True anomaly
144.87597°
Mean anomaly
144.7807°
Eccentric anomaly
144.82835°
Mean motion
3.10455 °/min
Orbital period
115.96 mins
BSTAR
0.00016637
Loading maneuver chart data...
Computing Atmospheric mass density...
Loading historical data...
Loading historical data...
Loading historical data...
Loading historical data...
Loading historical data...
Loading historical data...
Loading historical data...

Documentation

Showing up to 5 results
|